Location: ČR
(50.0000°N, 15.0000°E)
Time: 16:08:00
(UTC+00:00)

N. Korean satellite - Visible Passes

Search period start: 25 September 2021 00:00
Search period end: 05 October 2021 00:00
Orbit: 449 x 498 km, 97.3° (Epoch: 24 September)

Date Brightness Start Highest point End Pass type
(mag) Time Alt. Az. Time Alt. Az. Time Alt. Az.
25 Sep 9.5 03:31:56 10° NE 03:34:36 20° E 03:37:16 10° SE visible
27 Sep 7.6 04:08:55 10° NNE 04:12:25 51° E 04:15:55 10° S visible
28 Sep 9.1 03:41:28 10° NE 03:44:28 25° E 03:47:30 10° SSE visible
29 Sep 9.9 03:14:41 10° ENE 03:16:26 13° E 03:18:11 10° ESE visible
30 Sep 7.0 04:18:36 10° NNE 04:22:10 68° ESE 04:25:46 10° S visible
01 Oct 8.6 03:50:59 10° NNE 03:54:15 32° E 03:57:31 10° SSE visible
02 Oct 9.7 03:23:48 10° NE 03:26:12 17° E 03:28:36 10° SE visible
03 Oct 6.6 04:28:12 10° NNE 04:31:49 89° E 04:35:28 10° SSW visible
04 Oct 8.1 04:00:27 10° NNE 04:03:54 41° E 04:07:22 10° S visible
